TimeMDT,TemperatureF,Dew PointF,Humidity,Sea Level PressureIn,VisibilityMPH,Wind Direction,Wind SpeedMPH,Gust SpeedMPH,PrecipitationIn,Events,Conditions,WindDirDegrees,DateUTC
12:51 AM,70.0,46.9,44,29.95,10.0,SW,4.6,-,N/A,,Clear,230,2013-08-22 06:51:00
1:51 AM,68.0,46.0,45,29.94,10.0,SSW,5.8,-,N/A,,Clear,210,2013-08-22 07:51:00
2:51 AM,69.1,46.0,44,29.92,10.0,Calm,Calm,-,N/A,,Clear,0,2013-08-22 08:51:00
3:51 AM,66.0,46.0,48,29.92,10.0,WSW,6.9,-,N/A,,Clear,250,2013-08-22 09:51:00
4:51 AM,64.9,46.0,50,29.93,10.0,Calm,Calm,-,N/A,,Clear,0,2013-08-22 10:51:00
5:51 AM,61.0,46.9,60,29.94,10.0,Calm,Calm,-,N/A,,Clear,0,2013-08-22 11:51:00
6:51 AM,66.0,46.9,50,29.96,10.0,West,3.5,-,N/A,,Clear,270,2013-08-22 12:51:00
7:51 AM,70.0,46.9,44,29.97,10.0,Calm,Calm,-,N/A,,Clear,0,2013-08-22 13:51:00
8:51 AM,75.0,46.0,36,29.99,10.0,SSE,5.8,-,N/A,,Clear,150,2013-08-22 14:51:00
9:51 AM,81.0,48.9,33,29.98,10.0,SSE,8.1,-,N/A,,Clear,150,2013-08-22 15:51:00
10:51 AM,84.9,50.0,30,29.97,10.0,SSE,10.4,-,N/A,,Clear,150,2013-08-22 16:51:00
11:51 AM,87.1,46.9,25,29.97,10.0,SSE,9.2,18.4,N/A,,Clear,160,2013-08-22 17:51:00
12:51 PM,89.1,46.9,23,29.95,10.0,SE,8.1,23.0,N/A,,Clear,130,2013-08-22 18:51:00
1:51 PM,91.0,42.1,18,29.92,10.0,SSE,9.2,18.4,N/A,,Clear,150,2013-08-22 19:51:00
2:51 PM,91.9,39.9,16,29.89,10.0,SE,12.7,18.4,N/A,,Clear,130,2013-08-22 20:51:00
3:51 PM,93.0,43.0,18,29.87,10.0,SSE,9.2,-,N/A,,Partly Cloudy,150,2013-08-22 21:51:00
4:51 PM,93.0,43.0,18,29.85,10.0,SE,8.1,16.1,N/A,,Clear,130,2013-08-22 22:51:00
5:51 PM,91.9,46.0,21,29.85,10.0,SSE,6.9,-,N/A,,Clear,150,2013-08-22 23:51:00
6:51 PM,90.0,46.9,23,29.83,10.0,SSE,5.8,-,N/A,,Clear,150,2013-08-23 00:51:00
7:51 PM,86.0,48.0,27,29.84,10.0,SSE,4.6,-,N/A,,Clear,150,2013-08-23 01:51:00
8:51 PM,82.0,50.0,33,29.86,10.0,South,4.6,-,N/A,,Clear,170,2013-08-23 02:51:00
9:51 PM,79.0,50.0,36,29.88,10.0,East,4.6,-,N/A,,Clear,100,2013-08-23 03:51:00
10:51 PM,79.0,53.1,40,29.89,10.0,SSE,9.2,-,N/A,,Scattered Clouds,160,2013-08-23 04:51:00
11:51 PM,75.0,55.0,50,29.89,10.0,South,5.8,-,N/A,,Clear,170,2013-08-23 05:51:00